FW8715 Weather Reports


time (UTC)temp
C
wind
direction
speed
KPH
gust
KPH
rain 1hr
cm
rain 24hr
cm
rain mn
cm
humidity
%
barometer
mb
20260506112606 13 256 0.0 0.0 0.00 1.88 3.51 76 1012.8
20260506105605 12 173 1.6 1.6 0.03 1.88 3.51 84 1012.8
20260506102606 11 162 0.0 0.0 0.05 1.88 3.51 90 1012.8
20260506092604 11 42 0.0 0.0 0.03 1.83 3.45 90 1012.5
20260506082606 10 184 0.0 0.0 0.28 1.80 3.43 94 1011.8
20260506072604 10 162 0.0 0.0 0.30 1.55 3.17 99 1011.5
20260506042606 10 330 0.0 0.0 0.33 0.41 2.03 97 1010.1
20260506035604 10 288 0.0 0.0 0.25 0.25 1.88 97 1010.1
20260506025605 10 36 0.0 0.0 0.00 0.00 1.65 96 1010.1
20260506022604 10 30 0.0 0.0 0.00 0.00 1.65 95 1010.1
20260506015606 10 36 0.0 0.0 0.00 0.00 1.68 95 1010.5
20260506012606 10 42 0.0 0.0 0.00 0.00 1.75 94 1010.8
20260506005604 10 42 0.0 0.0 0.00 0.00 1.96 94 1011.1
20260506002605 10 36 0.0 0.0 0.00 0.00 2.13 95 1011.5
20260505232604 10 42 0.0 0.0 0.00 0.00 2.31 94 1011.8
20260505222606 10 158 0.0 0.0 0.05 0.00 2.49 93 1013.2
20260505212607 10 178 1.6 1.6 0.03 2.46 2.46 91 1012.8
20260505205604 11 194 1.6 1.6 0.00 2.44 2.44 88 1012.8
20260505202606 11 170 1.6 1.6 0.05 2.44 2.44 95 1012.5
20260505195605 11 150 0.0 0.0 0.13 2.44 2.44 91 1011.8
20260505192604 12 6 1.6 1.6 0.10 2.39 2.39 91 1011.1
20260505185605 13 261 1.6 1.6 0.05 2.31 2.31 85 1010.8
20260505182605 13 84 1.6 1.6 0.28 2.29 2.29 90 1010.8
20260505175604 13 82 0.0 0.0 0.58 2.26 2.26 92 1010.8
20260505172606 14 84 1.6 1.6 0.33 2.01 2.01 84 1010.5
20260505165604 16 74 1.6 1.6 0.00 1.68 1.68 65 1010.5
20260505162605 18 351 0.0 0.0 0.00 1.68 1.68 60 1010.5
20260505122606 12 72 3.2 3.2 0.81 1.68 1.68 95 1011.8